| time (UTC) | temp C | wind direction | speed KPH | gust KPH | rain 1hr cm | rain 24hr cm | rain mn cm | humidity % | barometer mb |
| 20260901073503 | 14 | 212 | 0.0 | 0.0 | 0.00 | 0.00 | 0.00 | 85 | 1020.0 |
| 20260901072003 | 13 | 213 | 0.0 | 0.0 | 0.00 | 0.00 | 0.00 | 89 | 1020.0 |
| 20260901071503 | 12 | 217 | 0.0 | 0.0 | 0.00 | 0.00 | 0.00 | 90 | 1020.0 |
| 20260901071003 | 12 | 218 | 0.0 | 0.0 | 0.00 | 0.00 | 0.00 | 90 | 1020.0 |
| 20260901070004 | 12 | 219 | 0.0 | 0.0 | 0.00 | 0.00 | 0.00 | 90 | 1019.9 |
| 20260901065503 | 12 | 219 | 0.0 | 0.0 | 0.00 | 0.00 | 0.00 | 89 | 1019.9 |
| 20260901065004 | 12 | 219 | 0.0 | 0.0 | 0.00 | 0.00 | 0.00 | 89 | 1019.9 |
| 20260901064504 | 12 | 219 | 0.0 | 0.0 | 0.00 | 0.00 | 0.00 | 90 | 1019.9 |
| 20260901064004 | 12 | 219 | 0.0 | 0.0 | 0.00 | 0.00 | 0.00 | 90 | 1019.8 |
| 20260901063504 | 12 | 219 | 0.0 | 0.0 | 0.00 | 0.00 | 0.00 | 90 | 1019.8 |
| 20260901063003 | 12 | 219 | 0.0 | 0.0 | 0.00 | 0.00 | 0.00 | 90 | 1019.8 |
| 20260901062503 | 12 | 218 | 0.0 | 0.0 | 0.00 | 0.00 | 0.00 | 90 | 1019.7 |
| 20260901062004 | 11 | 219 | 0.0 | 0.0 | 0.00 | 0.00 | 0.00 | 90 | 1019.7 |
| 20260901061503 | 11 | 219 | 0.0 | 0.0 | 0.00 | 0.00 | 0.00 | 90 | 1019.7 |
| 20260901061003 | 11 | 219 | 0.0 | 0.0 | 0.00 | 0.03 | 0.00 | 90 | 1019.6 |
| 20260901060503 | 11 | 219 | 0.0 | 0.0 | 0.00 | 0.03 | 0.00 | 90 | 1019.6 |
| 20260901055504 | 11 | 219 | 0.0 | 0.0 | 0.00 | 0.03 | 0.00 | 90 | 1019.6 |
| 20260901054503 | 11 | 220 | 0.0 | 0.0 | 0.00 | 0.03 | 0.00 | 90 | 1019.5 |
| 20260901053504 | 11 | 220 | 0.0 | 0.0 | 0.00 | 0.03 | 0.00 | 90 | 1019.3 |
| 20260901053003 | 11 | 220 | 0.0 | 0.0 | 0.00 | 0.03 | 0.00 | 90 | 1019.3 |
| 20260901052503 | 11 | 220 | 0.0 | 0.0 | 0.00 | 0.03 | 0.00 | 90 | 1019.3 |
| 20260901051503 | 11 | 220 | 0.0 | 0.0 | 0.00 | 0.03 | 0.00 | 90 | 1019.4 |
| 20260901050503 | 11 | 220 | 0.0 | 0.0 | 0.00 | 0.03 | 0.00 | 90 | 1019.2 |
| 20260901050004 | 11 | 220 | 0.0 | 0.0 | 0.00 | 0.03 | 0.00 | 90 | 1019.2 |
| 20260901045503 | 11 | 220 | 0.0 | 0.0 | 0.00 | 0.03 | 0.00 | 90 | 1019.2 |
| 20260901045004 | 11 | 220 | 1.6 | 3.2 | 0.00 | 0.03 | 0.00 | 90 | 1019.1 |
| 20260901044506 | 11 | 220 | 0.0 | 3.2 | 0.00 | 0.03 | 0.00 | 90 | 1019.1 |
| 20260901044004 | 11 | 220 | 1.6 | 3.2 | 0.00 | 0.03 | 0.00 | 90 | 1019.1 |
| 20260901043504 | 11 | 220 | 3.2 | 3.2 | 0.00 | 0.03 | 0.00 | 90 | 1019.0 |
| 20260901043003 | 11 | 220 | 1.6 | 3.2 | 0.00 | 0.03 | 0.00 | 90 | 1019.0 |
| 20260901042504 | 11 | 220 | 3.2 | 4.8 | 0.00 | 0.03 | 0.00 | 90 | 1019.0 |
| 20260901041504 | 11 | 221 | 0.0 | 3.2 | 0.00 | 0.03 | 0.00 | 90 | 1019.0 |
| 20260901040503 | 11 | 221 | 1.6 | 3.2 | 0.00 | 0.03 | 0.00 | 90 | 1018.9 |
| 20260901040004 | 11 | 221 | 1.6 | 4.8 | 0.00 | 0.03 | 0.00 | 90 | 1018.9 |
| 20260901035503 | 11 | 223 | 3.2 | 4.8 | 0.00 | 0.03 | 0.00 | 90 | 1019.0 |
| 20260901034503 | 11 | 219 | 8.0 | 12.9 | 0.00 | 0.03 | 0.00 | 91 | 1019.1 |
| 20260901034003 | 11 | 246 | 1.6 | 4.8 | 0.00 | 0.03 | 0.00 | 91 | 1019.0 |
| 20260901033504 | 11 | 246 | 1.6 | 4.8 | 0.00 | 0.03 | 0.00 | 91 | 1019.1 |
| 20260901033003 | 11 | 246 | 1.6 | 3.2 | 0.00 | 0.03 | 0.00 | 91 | 1019.0 |
| 20260901032504 | 11 | 246 | 0.0 | 3.2 | 0.00 | 0.03 | 0.00 | 91 | 1019.0 |
| 20260901032003 | 11 | 246 | 3.2 | 4.8 | 0.00 | 0.03 | 0.00 | 91 | 1019.0 |
| 20260901031504 | 11 | 248 | 0.0 | 4.8 | 0.00 | 0.03 | 0.00 | 90 | 1019.0 |
| 20260901031004 | 11 | 249 | 0.0 | 0.0 | 0.00 | 0.03 | 0.00 | 90 | 1018.9 |
| 20260901030503 | 11 | 249 | 0.0 | 0.0 | 0.00 | 0.03 | 0.00 | 90 | 1018.9 |
| 20260901030004 | 11 | 248 | 0.0 | 0.0 | 0.00 | 0.03 | 0.00 | 91 | 1018.9 |
| 20260901025503 | 11 | 248 | 0.0 | 0.0 | 0.00 | 0.03 | 0.00 | 90 | 1018.9 |
| 20260901025003 | 11 | 248 | 0.0 | 0.0 | 0.00 | 0.03 | 0.00 | 90 | 1018.9 |
| 20260901024504 | 11 | 248 | 0.0 | 0.0 | 0.00 | 0.03 | 0.00 | 90 | 1018.9 |
| 20260901024004 | 11 | 248 | 0.0 | 0.0 | 0.00 | 0.03 | 0.00 | 90 | 1019.0 |
| 20260901023503 | 11 | 248 | 0.0 | 0.0 | 0.00 | 0.03 | 0.00 | 90 | 1019.0 |
| 20260901023004 | 11 | 248 | 0.0 | 0.0 | 0.00 | 0.03 | 0.00 | 89 | 1019.0 |
| 20260901022503 | 11 | 248 | 0.0 | 0.0 | 0.00 | 0.03 | 0.00 | 89 | 1019.1 |
| 20260901022003 | 11 | 248 | 0.0 | 0.0 | 0.00 | 0.03 | 0.00 | 89 | 1019.1 |
| 20260901021503 | 11 | 248 | 0.0 | 0.0 | 0.00 | 0.03 | 0.00 | 90 | 1019.1 |
| 20260901020003 | 11 | 248 | 0.0 | 0.0 | 0.00 | 0.03 | 0.00 | 90 | 1019.2 |
| 20260901015503 | 11 | 248 | 0.0 | 0.0 | 0.00 | 0.03 | 0.00 | 90 | 1019.3 |
| 20260901015004 | 11 | 248 | 0.0 | 0.0 | 0.00 | 0.03 | 0.00 | 90 | 1019.2 |
| 20260901014503 | 11 | 249 | 0.0 | 0.0 | 0.00 | 0.03 | 0.00 | 89 | 1019.2 |
| 20260901014004 | 11 | 249 | 0.0 | 0.0 | 0.00 | 0.03 | 0.00 | 89 | 1019.2 |
| 20260901013503 | 11 | 249 | 0.0 | 0.0 | 0.00 | 0.03 | 0.00 | 88 | 1019.3 |
| 20260901012504 | 11 | 249 | 0.0 | 0.0 | 0.00 | 0.03 | 0.00 | 88 | 1019.3 |
| 20260901012004 | 11 | 249 | 0.0 | 0.0 | 0.00 | 0.03 | 0.00 | 87 | 1019.2 |
| 20260901011503 | 11 | 249 | 0.0 | 0.0 | 0.00 | 0.03 | 0.00 | 87 | 1019.2 |
| 20260901011004 | 11 | 249 | 0.0 | 0.0 | 0.00 | 0.03 | 0.00 | 87 | 1019.2 |
| 20260901010504 | 11 | 249 | 0.0 | 3.2 | 0.00 | 0.03 | 0.00 | 87 | 1019.2 |
| 20260901010003 | 11 | 249 | 0.0 | 0.0 | 0.00 | 0.03 | 0.00 | 87 | 1019.2 |
| 20260901005504 | 11 | 249 | 0.0 | 4.8 | 0.00 | 0.03 | 0.00 | 86 | 1019.1 |
| 20260901005004 | 11 | 249 | 1.6 | 3.2 | 0.00 | 0.03 | 0.00 | 86 | 1019.1 |
| 20260901004503 | 11 | 249 | 1.6 | 1.6 | 0.00 | 0.03 | 0.00 | 85 | 1019.1 |
| 20260901004004 | 11 | 249 | 0.0 | 3.2 | 0.00 | 0.03 | 0.00 | 85 | 1019.2 |
| 20260901003504 | 11 | 249 | 3.2 | 4.8 | 0.00 | 0.03 | 0.00 | 85 | 1019.1 |
| 20260901002503 | 12 | 248 | 1.6 | 3.2 | 0.00 | 0.03 | 0.00 | 86 | 1019.1 |
| 20260901001504 | 12 | 248 | 4.8 | 4.8 | 0.00 | 0.03 | 0.00 | 85 | 1019.0 |
| 20260901000004 | 12 | 258 | 1.6 | 4.8 | 0.00 | 0.05 | 0.00 | 84 | 1019.0 |
| 20260831235504 | 12 | 258 | 3.2 | 4.8 | 0.00 | 0.05 | 0.00 | 83 | 1019.0 |
| 20260831235004 | 12 | 262 | 1.6 | 3.2 | 0.00 | 0.05 | 0.00 | 83 | 1019.0 |
| 20260831234503 | 12 | 262 | 1.6 | 4.8 | 0.00 | 0.05 | 0.00 | 82 | 1019.1 |
| 20260831234004 | 12 | 262 | 3.2 | 9.7 | 0.00 | 0.08 | 0.00 | 82 | 1019.1 |
| 20260831233504 | 13 | 253 | 4.8 | 8.0 | 0.00 | 0.08 | 0.00 | 82 | 1019.1 |
| 20260831233003 | 13 | 243 | 4.8 | 8.0 | 0.00 | 0.10 | 0.00 | 81 | 1019.1 |
| 20260831232504 | 13 | 253 | 4.8 | 8.0 | 0.00 | 0.18 | 0.00 | 81 | 1019.1 |
| 20260831232004 | 13 | 264 | 8.0 | 11.3 | 0.00 | 0.18 | 0.00 | 81 | 1019.1 |
| 20260831231503 | 13 | 268 | 6.4 | 12.9 | 0.00 | 0.18 | 0.00 | 81 | 1019.1 |
| 20260831231006 | 13 | 263 | 8.0 | 14.5 | 0.00 | 0.20 | 0.00 | 80 | 1019.1 |
| 20260831230505 | 13 | 269 | 6.4 | 14.5 | 0.00 | 0.30 | 0.00 | 80 | 1019.0 |
| 20260831230004 | 13 | 268 | 8.0 | 11.3 | 0.00 | 0.56 | 0.00 | 80 | 1019.0 |
| 20260831225503 | 13 | 276 | 8.0 | 14.5 | 0.00 | 0.61 | 0.56 | 80 | 1019.0 |
| 20260831224504 | 13 | 289 | 11.3 | 14.5 | 0.00 | 0.61 | 0.56 | 79 | 1018.9 |
| 20260831224003 | 13 | 284 | 8.0 | 12.9 | 0.00 | 0.61 | 0.56 | 79 | 1018.9 |
| 20260831223503 | 13 | 284 | 9.7 | 16.1 | 0.00 | 0.61 | 0.56 | 79 | 1018.8 |
| 20260831223003 | 13 | 277 | 9.7 | 14.5 | 0.00 | 0.61 | 0.56 | 79 | 1018.9 |
| 20260831222504 | 13 | 261 | 9.7 | 14.5 | 0.00 | 0.61 | 0.56 | 79 | 1018.9 |
| 20260831222004 | 14 | 279 | 8.0 | 12.9 | 0.00 | 0.61 | 0.56 | 79 | 1018.9 |
| 20260831221003 | 14 | 255 | 6.4 | 11.3 | 0.00 | 0.61 | 0.56 | 79 | 1018.9 |
| 20260831220503 | 14 | 259 | 4.8 | 11.3 | 0.00 | 0.61 | 0.56 | 78 | 1018.9 |
| 20260831215503 | 13 | 291 | 6.4 | 14.5 | 0.00 | 0.61 | 0.56 | 79 | 1018.8 |
| 20260831214503 | 13 | 278 | 6.4 | 11.3 | 0.00 | 0.61 | 0.56 | 80 | 1018.7 |
| 20260831214003 | 13 | 278 | 9.7 | 14.5 | 0.00 | 0.61 | 0.56 | 80 | 1018.7 |
| 20260831213504 | 13 | 276 | 8.0 | 19.3 | 0.00 | 0.61 | 0.56 | 80 | 1018.7 |
| 20260831213004 | 13 | 283 | 8.0 | 12.9 | 0.00 | 0.61 | 0.56 | 81 | 1018.7 |
| 20260831212504 | 13 | 259 | 6.4 | 9.7 | 0.00 | 0.61 | 0.56 | 81 | 1018.7 |
| 20260831212004 | 13 | 257 | 4.8 | 9.7 | 0.00 | 0.61 | 0.56 | 80 | 1018.7 |
| 20260831211504 | 13 | 259 | 4.8 | 12.9 | 0.00 | 0.61 | 0.56 | 80 | 1018.7 |
| 20260831211003 | 13 | 252 | 6.4 | 9.7 | 0.00 | 0.61 | 0.56 | 80 | 1018.7 |
| 20260831210503 | 13 | 234 | 6.4 | 9.7 | 0.00 | 0.64 | 0.56 | 80 | 1018.7 |
| 20260831210004 | 13 | 234 | 4.8 | 11.3 | 0.00 | 0.64 | 0.56 | 80 | 1018.7 |
| 20260831205003 | 13 | 254 | 6.4 | 9.7 | 0.00 | 0.64 | 0.56 | 79 | 1018.5 |
| 20260831204504 | 13 | 246 | 4.8 | 8.0 | 0.00 | 0.64 | 0.56 | 79 | 1018.5 |
| 20260831204003 | 13 | 232 | 6.4 | 9.7 | 0.00 | 0.66 | 0.56 | 79 | 1018.5 |
| 20260831203504 | 14 | 249 | 4.8 | 8.0 | 0.00 | 0.66 | 0.56 | 79 | 1018.5 |
| 20260831203003 | 14 | 255 | 8.0 | 9.7 | 0.00 | 0.66 | 0.56 | 79 | 1018.5 |
| 20260831202503 | 14 | 244 | 4.8 | 8.0 | 0.00 | 0.66 | 0.56 | 79 | 1018.5 |
| 20260831202004 | 14 | 248 | 6.4 | 11.3 | 0.00 | 0.69 | 0.56 | 79 | 1018.4 |
| 20260831201504 | 14 | 246 | 8.0 | 11.3 | 0.00 | 0.71 | 0.56 | 79 | 1018.4 |
| 20260831201004 | 14 | 246 | 8.0 | 11.3 | 0.00 | 0.71 | 0.56 | 78 | 1018.3 |
| 20260831200503 | 14 | 260 | 8.0 | 12.9 | 0.00 | 0.71 | 0.56 | 78 | 1018.2 |
| 20260831195504 | 15 | 269 | 6.4 | 11.3 | 0.00 | 0.71 | 0.56 | 77 | 1018.1 |
| 20260831195003 | 15 | 258 | 6.4 | 11.3 | 0.00 | 0.71 | 0.56 | 77 | 1018.1 |
| 20260831194503 | 15 | 260 | 4.8 | 11.3 | 0.00 | 0.71 | 0.56 | 76 | 1018.0 |
| 20260831194003 | 15 | 261 | 6.4 | 9.7 | 0.00 | 0.71 | 0.56 | 76 | 1017.9 |
| 20260831193503 | 15 | 261 | 8.0 | 11.3 | 0.00 | 0.71 | 0.56 | 75 | 1017.9 |
| 20260831192504 | 16 | 270 | 8.0 | 12.9 | 0.00 | 0.71 | 0.56 | 75 | 1017.7 |
| 20260831191503 | 16 | 270 | 9.7 | 14.5 | 0.00 | 0.71 | 0.56 | 74 | 1017.6 |
| 20260831191005 | 16 | 284 | 8.0 | 16.1 | 0.00 | 0.71 | 0.56 | 74 | 1017.5 |
| 20260831190003 | 16 | 268 | 11.3 | 19.3 | 0.00 | 0.71 | 0.56 | 74 | 1017.5 |
| 20260831185504 | 16 | 257 | 9.7 | 12.9 | 0.00 | 0.71 | 0.56 | 74 | 1017.5 |
| 20260831185004 | 16 | 247 | 8.0 | 14.5 | 0.00 | 0.71 | 0.56 | 74 | 1017.4 |
| 20260831184503 | 16 | 246 | 8.0 | 14.5 | 0.00 | 0.71 | 0.56 | 73 | 1017.4 |
| 20260831184004 | 16 | 259 | 8.0 | 14.5 | 0.00 | 0.71 | 0.56 | 73 | 1017.3 |
| 20260831183003 | 17 | 260 | 8.0 | 16.1 | 0.00 | 0.71 | 0.56 | 71 | 1017.2 |
| 20260831182504 | 17 | 276 | 4.8 | 11.3 | 0.00 | 0.71 | 0.56 | 70 | 1017.3 |
| 20260831182004 | 17 | 271 | 9.7 | 14.5 | 0.00 | 0.71 | 0.56 | 70 | 1017.2 |
| 20260831181004 | 17 | 290 | 8.0 | 14.5 | 0.00 | 0.71 | 0.56 | 69 | 1017.1 |
| 20260831180504 | 17 | 276 | 8.0 | 12.9 | 0.00 | 0.71 | 0.56 | 69 | 1017.1 |
| 20260831175504 | 17 | 281 | 11.3 | 14.5 | 0.00 | 0.76 | 0.56 | 68 | 1016.9 |
| 20260831175004 | 17 | 265 | 11.3 | 14.5 | 0.00 | 0.79 | 0.56 | 68 | 1016.9 |
| 20260831174503 | 17 | 277 | 9.7 | 19.3 | 0.00 | 0.84 | 0.56 | 68 | 1016.8 |
| 20260831174004 | 17 | 283 | 9.7 | 19.3 | 0.00 | 0.89 | 0.56 | 68 | 1016.8 |
| 20260831173504 | 17 | 292 | 11.3 | 20.9 | 0.00 | 0.97 | 0.56 | 68 | 1016.8 |
| 20260831172504 | 17 | 288 | 11.3 | 19.3 | 0.00 | 1.17 | 0.56 | 67 | 1016.7 |
| 20260831172003 | 17 | 287 | 8.0 | 19.3 | 0.00 | 1.17 | 0.56 | 68 | 1016.6 |
| 20260831171504 | 17 | 280 | 12.9 | 20.9 | 0.00 | 1.17 | 0.56 | 67 | 1016.5 |
| 20260831170503 | 17 | 295 | 9.7 | 19.3 | 0.00 | 1.17 | 0.56 | 68 | 1016.6 |
| 20260831170004 | 17 | 286 | 14.5 | 20.9 | 0.00 | 1.17 | 0.56 | 67 | 1016.5 |
| 20260831165504 | 17 | 284 | 12.9 | 20.9 | 0.00 | 1.17 | 0.56 | 67 | 1016.5 |
| 20260831165004 | 17 | 284 | 12.9 | 19.3 | 0.00 | 1.17 | 0.56 | 66 | 1016.5 |
| 20260831164504 | 18 | 284 | 9.7 | 19.3 | 0.00 | 1.17 | 0.56 | 66 | 1016.4 |
| 20260831163004 | 18 | 274 | 9.7 | 19.3 | 0.00 | 1.17 | 0.56 | 66 | 1016.2 |
| 20260831162504 | 18 | 267 | 9.7 | 16.1 | 0.00 | 1.17 | 0.56 | 67 | 1016.2 |
| 20260831162003 | 18 | 295 | 8.0 | 19.3 | 0.00 | 1.17 | 0.56 | 67 | 1016.2 |
| 20260831161504 | 18 | 287 | 11.3 | 19.3 | 0.00 | 1.17 | 0.56 | 66 | 1016.2 |
| 20260831161004 | 18 | 281 | 11.3 | 24.1 | 0.00 | 1.17 | 0.56 | 66 | 1016.2 |
| 20260831160504 | 18 | 281 | 12.9 | 22.5 | 0.00 | 1.17 | 0.56 | 65 | 1016.2 |
| 20260831160004 | 18 | 287 | 17.7 | 29.0 | 0.00 | 1.17 | 0.56 | 63 | 1016.1 |
| 20260831155503 | 18 | 281 | 19.3 | 29.0 | 0.00 | 1.17 | 0.56 | 63 | 1016.1 |
| 20260831155004 | 18 | 288 | 12.9 | 24.1 | 0.00 | 1.17 | 0.56 | 65 | 1016.0 |
| 20260831154003 | 18 | 292 | 16.1 | 25.7 | 0.00 | 1.17 | 0.56 | 66 | 1016.0 |
| 20260831153504 | 18 | 272 | 14.5 | 27.4 | 0.00 | 1.17 | 0.56 | 67 | 1015.9 |
| 20260831153004 | 18 | 291 | 17.7 | 32.2 | 0.00 | 1.17 | 0.56 | 67 | 1015.8 |
| 20260831152503 | 18 | 277 | 16.1 | 24.1 | 0.00 | 1.17 | 0.56 | 68 | 1015.8 |
| 20260831152003 | 18 | 273 | 17.7 | 25.7 | 0.00 | 1.17 | 0.56 | 67 | 1015.7 |
| 20260831151003 | 18 | 271 | 14.5 | 22.5 | 0.00 | 1.17 | 0.56 | 67 | 1015.4 |
| 20260831150504 | 18 | 282 | 14.5 | 25.7 | 0.00 | 1.17 | 0.56 | 68 | 1015.4 |
| 20260831150004 | 18 | 283 | 14.5 | 24.1 | 0.00 | 1.17 | 0.56 | 68 | 1015.3 |
| 20260831145004 | 18 | 277 | 14.5 | 22.5 | 0.00 | 1.17 | 0.56 | 68 | 1015.3 |
| 20260831144504 | 18 | 284 | 16.1 | 25.7 | 0.00 | 1.17 | 0.56 | 68 | 1015.2 |
| 20260831144004 | 18 | 257 | 17.7 | 32.2 | 0.00 | 1.17 | 0.56 | 68 | 1015.3 |
| 20260831143504 | 18 | 282 | 16.1 | 22.5 | 0.00 | 1.17 | 0.56 | 68 | 1015.3 |
| 20260831142503 | 18 | 263 | 14.5 | 24.1 | 0.00 | 1.17 | 0.56 | 68 | 1015.2 |
| 20260831142004 | 18 | 254 | 14.5 | 24.1 | 0.00 | 1.17 | 0.56 | 67 | 1015.1 |
| 20260831141504 | 18 | 255 | 14.5 | 27.4 | 0.00 | 1.17 | 0.56 | 67 | 1015.0 |
| 20260831141003 | 19 | 257 | 11.3 | 22.5 | 0.00 | 1.17 | 0.56 | 68 | 1014.9 |
| 20260831140503 | 19 | 254 | 16.1 | 24.1 | 0.00 | 1.17 | 0.56 | 67 | 1014.9 |
| 20260831140004 | 19 | 261 | 16.1 | 24.1 | 0.00 | 1.17 | 0.56 | 66 | 1014.9 |
| 20260831135503 | 19 | 274 | 16.1 | 25.7 | 0.00 | 1.17 | 0.56 | 66 | 1014.8 |
| 20260831135004 | 19 | 265 | 16.1 | 24.1 | 0.00 | 1.17 | 0.56 | 66 | 1014.7 |
| 20260831134503 | 19 | 265 | 11.3 | 20.9 | 0.00 | 1.17 | 0.56 | 68 | 1014.7 |
| 20260831133004 | 19 | 291 | 12.9 | 20.9 | 0.00 | 1.27 | 0.56 | 69 | 1014.5 |
| 20260831132004 | 20 | 300 | 9.7 | 20.9 | 0.00 | 1.27 | 0.56 | 68 | 1014.3 |
| 20260831131503 | 20 | 254 | 11.3 | 19.3 | 0.00 | 1.27 | 0.56 | 71 | 1014.2 |
| 20260831131004 | 19 | 299 | 11.3 | 19.3 | 0.00 | 1.27 | 0.56 | 70 | 1014.2 |
| 20260831130503 | 20 | 288 | 14.5 | 25.7 | 0.00 | 1.27 | 0.56 | 69 | 1014.2 |
| 20260831130004 | 20 | 299 | 19.3 | 25.7 | 0.00 | 1.27 | 0.56 | 68 | 1014.1 |
| 20260831125503 | 20 | 290 | 8.0 | 24.1 | 0.00 | 1.27 | 0.56 | 68 | 1014.0 |
| 20260831125004 | 20 | 293 | 11.3 | 24.1 | 0.00 | 1.27 | 0.56 | 69 | 1013.9 |
| 20260831124503 | 20 | 271 | 14.5 | 24.1 | 0.00 | 1.27 | 0.56 | 70 | 1013.9 |
| 20260831123503 | 20 | 289 | 16.1 | 24.1 | 0.00 | 1.27 | 0.56 | 68 | 1013.9 |
| 20260831123003 | 20 | 296 | 14.5 | 25.7 | 0.00 | 1.27 | 0.56 | 68 | 1013.8 |
| 20260831122504 | 20 | 288 | 19.3 | 29.0 | 0.00 | 1.27 | 0.56 | 68 | 1013.7 |
| 20260831122003 | 20 | 275 | 11.3 | 32.2 | 0.00 | 1.27 | 0.56 | 71 | 1013.6 |
| 20260831121503 | 20 | 293 | 19.3 | 27.4 | 0.00 | 1.27 | 0.56 | 71 | 1013.5 |
| 20260831121004 | 20 | 287 | 19.3 | 27.4 | 0.00 | 1.27 | 0.56 | 72 | 1013.5 |
| 20260831120504 | 19 | 296 | 20.9 | 32.2 | 0.00 | 1.27 | 0.56 | 74 | 1013.5 |
| 20260831120004 | 19 | 273 | 17.7 | 27.4 | 0.00 | 1.27 | 0.56 | 77 | 1013.4 |
| 20260831115503 | 18 | 287 | 16.1 | 27.4 | 0.00 | 1.27 | 0.56 | 80 | 1013.4 |
| 20260831115004 | 18 | 287 | 17.7 | 27.4 | 0.00 | 1.27 | 0.56 | 81 | 1013.4 |
| 20260831114503 | 18 | 278 | 19.3 | 32.2 | 0.00 | 1.27 | 0.56 | 77 | 1013.3 |
| 20260831114004 | 20 | 297 | 19.3 | 38.6 | 0.00 | 1.27 | 0.56 | 72 | 1013.1 |
| 20260831113504 | 20 | 295 | 16.1 | 25.7 | 0.00 | 1.27 | 0.56 | 71 | 1012.9 |
| 20260831113003 | 20 | 295 | 14.5 | 24.1 | 0.00 | 1.27 | 0.56 | 72 | 1012.8 |
| 20260831112503 | 20 | 302 | 14.5 | 24.1 | 0.00 | 1.27 | 0.56 | 70 | 1012.8 |
| 20260831112004 | 20 | 275 | 9.7 | 22.5 | 0.00 | 1.27 | 0.56 | 74 | 1012.7 |
| 20260831111503 | 19 | 279 | 14.5 | 25.7 | 0.00 | 1.27 | 0.56 | 77 | 1012.7 |
| 20260831111004 | 18 | 286 | 14.5 | 22.5 | 0.00 | 1.27 | 0.56 | 75 | 1012.7 |
| 20260831110004 | 20 | 287 | 19.3 | 32.2 | 0.00 | 1.27 | 0.56 | 72 | 1012.6 |
| 20260831105503 | 20 | 281 | 16.1 | 29.0 | 0.00 | 1.27 | 0.56 | 71 | 1012.5 |
| 20260831105004 | 20 | 278 | 19.3 | 32.2 | 0.00 | 1.27 | 0.56 | 71 | 1012.4 |
| 20260831104504 | 20 | 280 | 14.5 | 27.4 | 0.00 | 1.27 | 0.56 | 72 | 1012.2 |
| 20260831104004 | 20 | 294 | 12.9 | 20.9 | 0.00 | 1.27 | 0.56 | 75 | 1012.1 |
| 20260831103504 | 19 | 298 | 14.5 | 20.9 | 0.00 | 1.27 | 0.56 | 76 | 1012.1 |
| 20260831103004 | 19 | 294 | 12.9 | 24.1 | 0.00 | 1.27 | 0.56 | 74 | 1012.1 |
| 20260831102503 | 19 | 294 | 14.5 | 27.4 | 0.00 | 1.27 | 0.56 | 76 | 1012.1 |
| 20260831102004 | 18 | 262 | 16.1 | 25.7 | 0.00 | 1.27 | 0.56 | 77 | 1012.0 |
| 20260831101503 | 18 | 282 | 12.9 | 29.0 | 0.00 | 1.27 | 0.56 | 77 | 1011.9 |
| 20260831101004 | 18 | 287 | 12.9 | 20.9 | 0.00 | 1.27 | 0.56 | 77 | 1011.9 |
| 20260831100503 | 18 | 257 | 9.7 | 24.1 | 0.00 | 1.27 | 0.56 | 77 | 1011.8 |
| 20260831100003 | 18 | 280 | 14.5 | 24.1 | 0.00 | 1.27 | 0.56 | 78 | 1011.7 |
| 20260831095504 | 18 | 289 | 14.5 | 19.3 | 0.00 | 1.27 | 0.56 | 77 | 1011.7 |
| 20260831095003 | 18 | 304 | 9.7 | 19.3 | 0.00 | 1.27 | 0.56 | 78 | 1011.5 |
| 20260831094503 | 18 | 310 | 11.3 | 19.3 | 0.00 | 1.27 | 0.56 | 78 | 1011.4 |
| 20260831094004 | 18 | 314 | 12.9 | 24.1 | 0.00 | 1.27 | 0.56 | 78 | 1011.3 |
| 20260831093503 | 18 | 300 | 12.9 | 24.1 | 0.00 | 1.27 | 0.56 | 78 | 1011.3 |
| 20260831093004 | 18 | 316 | 14.5 | 20.9 | 0.00 | 1.27 | 0.56 | 79 | 1011.1 |
| 20260831092503 | 18 | 292 | 12.9 | 20.9 | 0.00 | 1.27 | 0.56 | 80 | 1011.1 |
| 20260831092004 | 17 | 302 | 14.5 | 27.4 | 0.00 | 1.27 | 0.56 | 81 | 1010.9 |
| 20260831091503 | 17 | 293 | 9.7 | 19.3 | 0.00 | 1.27 | 0.56 | 81 | 1010.9 |
| 20260831090503 | 17 | 293 | 12.9 | 25.7 | 0.00 | 1.27 | 0.56 | 82 | 1010.7 |
| 20260831090003 | 17 | 287 | 12.9 | 25.7 | 0.00 | 1.27 | 0.56 | 83 | 1010.7 |
| 20260831085504 | 17 | 277 | 14.5 | 20.9 | 0.00 | 1.27 | 0.56 | 83 | 1010.6 |
| 20260831084504 | 16 | 260 | 12.9 | 22.5 | 0.00 | 1.27 | 0.56 | 85 | 1010.6 |
| 20260831083504 | 16 | 264 | 11.3 | 20.9 | 0.00 | 1.27 | 0.56 | 84 | 1010.5 |
| 20260831083003 | 16 | 258 | 12.9 | 20.9 | 0.00 | 1.27 | 0.56 | 85 | 1010.3 |
| 20260831082504 | 16 | 254 | 8.0 | 16.1 | 0.00 | 1.27 | 0.56 | 86 | 1010.2 |
| 20260831082004 | 16 | 259 | 6.4 | 14.5 | 0.00 | 1.27 | 0.56 | 86 | 1010.1 |
| 20260831081503 | 16 | 260 | 11.3 | 19.3 | 0.00 | 1.27 | 0.56 | 86 | 1010.0 |
| 20260831081003 | 16 | 295 | 11.3 | 19.3 | 0.00 | 1.27 | 0.56 | 87 | 1009.9 |
| 20260831080504 | 16 | 282 | 9.7 | 19.3 | 0.00 | 1.27 | 0.56 | 88 | 1009.8 |
| 20260831080003 | 15 | 259 | 11.3 | 19.3 | 0.00 | 1.27 | 0.56 | 88 | 1009.7 |
| 20260831075503 | 15 | 285 | 11.3 | 20.9 | 0.00 | 1.27 | 0.56 | 88 | 1009.6 |
| 20260831075005 | 15 | 289 | 11.3 | 22.5 | 0.00 | 1.27 | 0.56 | 89 | 1009.6 |
| 20260831074004 | 15 | 287 | 9.7 | 19.3 | 0.00 | 1.27 | 0.56 | 91 | 1009.3 |